metlocid,date_time,avg_rh,std_rh,min_rh,max_rh,n_rh,n_comments
FRLM,12/1/93,68.78968697,16.91282225,24.2,99.99,3515,49
FRLM,1/1/94,60.94880019,15.92184925,27.2,98.29,1667,0
FRLM,2/1/94,76.30196427,15.00173055,46.15,99.99,224,5
FRLM,3/1/94,79.49858873,11.01657388,47.15,95.98,248,0
FRLM,4/1/94,81.96608334,16.15210055,31.44,98.35,240,0
FRLM,5/1/94,80.21431465,12.40201009,37.06,95.16,248,0
FRLM,6/1/94,73.33166656,18.79844345,31.4,96.93,240,0
FRLM,7/1/94,74.37209685,15.38414962,25.18,96.74,248,0
FRLM,8/1/94,69.12407246,13.84976955,34.65,92.51,248,0
FRLM,9/1/94,75.48108331,10.19953177,30.68,92.79,240,0
FRLM,10/1/94,73.18221799,17.41148976,30.73,98.9,248,0
FRLM,11/1/94,67.48107957,12.11668736,31.26,95.74,389,4
FRLM,12/1/94,62.11788979,16.83163003,25,97.18,2232,0
FRLM,1/1/95,66.79838493,14.01854074,25.7,95.48,2229,0
FRLM,2/1/95,66.38494547,21.02490856,21.59,99.65,2016,0
FRLM,3/1/95,83.34183239,10.6688866,40.78,99.99,2232,2
FRLM,4/1/95,81.40079172,15.17343575,34.93,97.36,2160,0
FRLM,5/1/95,78.06353486,15.89234038,30.32,94.7,2232,0
FRLM,6/1/95,72.14223609,19.45122541,25.7,94.81,2160,0
FRLM,7/1/95,79.21806004,10.76835315,29.23,95.61,2232,0
FRLM,8/1/95,71.6573522,20.42975087,27.69,91.23,2232,0
FRLM,9/1/95,73.99632406,16.37747764,28.57,91.77,2160,0
FRLM,10/1/95,62.67714609,15.33971071,29.47,92.49,2232,0
FRLM,11/1/95,52.55606303,16.43117867,24.57,97.58,2380,1
FRLM,12/1/95,62.53778564,13.69157481,23.8,95.25,2976,0
FRLM,1/1/96,67.19212769,15.6621828,22.21,99.68,2975,0
FRLM,2/1/96,63.14286277,12.15485493,26.1,97.38,2784,0
FRLM,3/1/96,75.9792339,17.99568794,22.5,94.54,2976,0
FRLM,4/1/96,78.59441667,18.68549905,31.23,98.56,2880,0
FRLM,5/1/96,82.94088707,11.55867647,37.45,94.57,2976,0
FRLM,6/1/96,75.77721179,16.58195556,29.3,90.38,2880,0
FRLM,7/1/96,64.51302083,16.61764155,26.82,87.94,2976,0
FRLM,8/1/96,71.17636854,18.24301067,23.5,96.13,2974,0
FRLM,9/1/96,75.05685416,14.04521383,35.49,92.18,2880,0
FRLM,10/1/96,66.52511092,13.81941461,31.47,90.34,2976,0
FRLM,11/1/96,57.68151839,14.79124153,21.1,91.13,2878,0
FRLM,12/1/96,59.59773857,14.27037902,24.6,99.99,2976,18
FRLM,1/1/97,68.41150535,14.94388591,27.6,99.99,2976,10
FRLM,2/1/97,64.07489203,14.39339914,23.52,93.48,2688,0
FRLM,3/1/97,78.58214049,10.67424916,30.71,92.68,2976,0
FRLM,4/1/97,79.32369793,11.25078307,34.67,92.15,2880,0
FRLM,5/1/97,68.0182997,19.35484199,26.16,91.31,2976,0
FRLM,6/1/97,69.99030209,20.8323962,28.3,91.04,2880,0
FRLM,7/1/97,67.78264876,13.29261216,31.94,91.96,2975,0
FRLM,8/1/97,69.379207,13.13775471,34.75,89.22,2976,0
FRLM,9/1/97,70.79030554,14.79396092,28.66,99.99,2880,2
FRLM,10/1/97,62.10669023,19.38959382,27.57,95.49,2976,0
FRLM,11/1/97,53.20849444,19.47646594,23.7,96.35,2876,0
FRLM,12/1/97,75.20291324,11.90155723,28.9,98.37,2976,0
FRLM,1/1/98,73.9105914,13.43373278,42.56,99.84,2976,0
FRLM,2/1/98,78.68987705,15.94854292,39.07,99.99,2688,226
FRLM,3/1/98,80.23708335,12.9087121,44.98,98.36,2976,0
FRLM,4/1/98,80.94236114,13.87082315,37.99,95.38,2880,0
FRLM,5/1/98,79.81687834,15.88123128,28.75,96.05,2976,0
FRLM,6/1/98,76.99810414,19.54832707,28.73,99.93,2880,0
FRLM,7/1/98,76.96451278,15.72383969,29.4,93.28,2976,0
FRLM,8/1/98,75.83537298,15.7338996,30.83,91.42,2976,0
FRLM,9/1/98,80.68530898,6.955477158,37.02,87.84,2880,0
FRLM,10/1/98,67.02425067,17.52682836,25.68,96.32,2976,0
FRLM,11/1/98,60.25643402,12.59884382,30.6,91.24,2880,0
FRLM,12/1/98,62.38694214,15.68614451,24.3,88.07,2976,0
FRLM,1/1/99,67.15655575,14.14471659,28.53,99.36,2976,0
FRLM,2/1/99,70.02298362,14.25935762,27.6,96.5,2688,0
FRLM,3/1/99,78.34147846,13.4810853,38.46,98.07,2976,0
FRLM,4/1/99,84.76596874,7.993198623,47.75,92.77,2880,0
FRLM,5/1/99,76.49894146,14.30679306,32.74,95.81,2976,0
FRLM,6/1/99,81.51331939,16.24084174,29.73,98.39,2880,0
FRLM,7/1/99,75.44303766,19.49851029,31.37,99.07,2976,0
FRLM,8/1/99,75.11382392,14.40392094,31.72,91.95,2976,0
FRLM,9/1/99,79.0274444,17.73834662,33.24,97.32,2880,0
FRLM,10/1/99,66.70437498,20.03383915,23.69,97.13,2976,0
FRLM,11/1/99,63.15612499,16.0909857,24.6,98.41,2880,0
FRLM,12/1/99,59.35351476,13.64571652,22.1,91.07,2976,0
FRLM,1/1/00,64.93436448,15.71152839,15.5,94.68,2974,2
FRLM,2/1/00,67.76191221,18.74200468,18.42,99.99,2756,34
FRLM,3/1/00,81.88780869,21.00152517,28.02,99.99,2976,637
FRLM,4/1/00,91.63267235,13.01328061,36.66,99.99,1620,1636
FRLM,5/1/00,,,,,0,2976
FRLM,6/1/00,,,,,0,2880
FRLM,7/1/00,92.75541128,5.688772035,80.36,99.99,863,2154
FRLM,8/1/00,76.49304762,24.60106765,18.6,99.99,2976,123
FRLM,9/1/00,79.10565615,21.94905043,15.14,99.99,2880,119
FRLM,10/1/00,77.86561817,17.11610506,31.32,99.99,2976,146
FRLM,11/1/00,63.77453438,21.18717599,19.81,99.99,2878,20
FRLM,12/1/00,69.47888776,14.36867251,24.4,97.82,2976,0
FRLM,1/1/01,74.17867941,14.16976049,24.32,99.99,2976,15
FRLM,2/1/01,68.93925592,18.07754967,20.7,99.99,2688,20
FRLM,3/1/01,84.54127327,16.99627184,19.55,99.99,2976,293
FRLM,4/1/01,89.61587106,16.78433509,27.9,99.99,2880,627
FRLM,5/1/01,79.24693876,24.58307289,17.5,99.99,2976,163
FRLM,6/1/01,81.3457881,21.65580122,27.01,99.99,2880,662
FRLM,7/1/01,81.01994272,21.91199219,26.88,99.99,2976,2976
FRLM,8/1/01,85.34190865,8.608733797,39.08,99.99,2976,2976
FRLM,9/1/01,84.3487291,14.8018116,23.91,99.99,2880,2880
FRLM,10/1/01,66.9120564,20.6180917,20.73,99.99,2976,2976
FRLM,11/1/01,59.72353476,14.57555104,20.14,99.62,2880,2550
FRLM,12/1/01,57.42415995,15.63086115,18.4,91.88,2976,0
FRLM,1/1/02,69.38741177,20.19009727,16.2,99.99,2975,38
FRLM,2/1/02,66.72218375,16.69050004,19.62,98.9,2688,0
FRLM,3/1/02,78.75748967,20.58866573,22.05,99.99,2976,377
FRLM,4/1/02,81.60577751,23.8313592,25.19,99.99,2880,342
FRLM,5/1/02,81.53043972,22.14503923,30.92,99.99,2976,558
FRLM,6/1/02,86.79713187,15.89812111,20.46,99.99,2880,106
FRLM,7/1/02,81.4345329,17.563166,21.99,99.99,2976,7
FRLM,8/1/02,82.59386756,16.00033995,30.8,99.99,2976,102
FRLM,9/1/02,88.55869066,16.01559833,24.81,99.99,2880,435
FRLM,10/1/02,83.85618259,15.86484626,30.64,99.99,2976,328
FRLM,11/1/02,73.09505211,17.6814141,19.59,99.99,2880,12
FRLM,12/1/02,73.38871312,14.56890182,26.06,99.39,2976,0
FRLM,1/1/03,73.24440186,12.67888167,27.3,97.74,2976,0
FRLM,2/1/03,73.05902899,14.68297994,31.74,99.99,2688,22
FRLM,3/1/03,85.41312791,18.52262442,30.34,99.99,2976,657
FRLM,4/1/03,92.6739894,12.91682784,33.36,99.99,2880,242
FRLM,5/1/03,74.37922702,26.40166119,20.73,99.99,2976,99
FRLM,6/1/03,89.94251702,14.65833956,21.33,99.99,2880,395
FRLM,7/1/03,75.00743601,24.98920709,22.44,99.99,2976,150
FRLM,8/1/03,86.83626,13.10176951,27.23,99.99,2976,36
FRLM,9/1/03,81.85736091,21.58464454,18.64,99.99,2880,166
FRLM,10/1/03,65.91140114,21.84512589,22.32,99.99,2976,77
FRLM,11/1/03,61.88823258,15.87924972,20.55,99.99,2880,5
FRLM,12/1/03,64.05581315,17.92544361,17.2,99.99,2976,1
FRLM,1/1/04,75.23400534,12.05508983,33.7,97.18,2976,0
FRLM,2/1/04,71.71252521,16.57987898,29.77,99.98,2784,111
FRLM,3/1/04,90.82494318,10.93074552,41.2,99.98,2976,662
FRLM,4/1/04,92.9591358,12.79565152,36.86,99.98,2880,737
FRLM,5/1/04,80.52226156,21.36376471,31.72,99.97,2976,257
FRLM,6/1/04,76.92895504,26.96544422,19.77,99.98,2880,266
FRLM,7/1/04,81.1950202,16.174655,18.24,99.9,2976,2
FRLM,8/1/04,78.7708098,21.08899079,17.57,99.03,2976,0
FRLM,9/1/04,90.43903476,13.05592753,33.71,99.96,2880,95
FRLM,10/1/04,74.58228843,19.47563676,26.14,99.97,2976,148
FRLM,11/1/04,63.12553474,16.41353924,20.22,98.7,2880,0
FRLM,12/1/04,68.29140124,16.06735903,25.27,99.9,2976,12
FRLM,1/1/05,76.68892474,11.92739879,27.5,99.9,2976,22
FRLM,2/1/05,75.84351573,17.43756146,27.11,99.96,2688,184
FRLM,3/1/05,86.66601506,14.89183929,35.79,99.98,2976,622
FRLM,4/1/05,95.58766364,7.965696187,36.09,99.97,2880,746
FRLM,5/1/05,85.70467105,20.82273211,31.02,99.98,2976,757
FRLM,6/1/05,84.00863552,19.67537715,32.9,99.97,2880,248
FRLM,7/1/05,86.69601507,18.37949284,24.94,99.98,2976,490
FRLM,8/1/05,83.39802086,19.72259722,24.64,99.93,2976,19
FRLM,9/1/05,83.8855765,16.95170543,19.16,99.96,2880,121
FRLM,10/1/05,70.30017476,22.25264879,19.73,99.97,2976,168
FRLM,11/1/05,67.49527435,15.74092946,19.68,99.36,2880,0
FRLM,12/1/05,65.74499671,17.19763451,23.14,99.93,2976,53
FRLM,1/1/06,64.55856518,17.36804719,14.03,96.18,2976,0
FRLM,2/1/06,75.58951264,16.50227943,33.03,99.97,2688,179
FRLM,3/1/06,86.69615272,15.48674133,29.27,99.98,2976,368
FRLM,4/1/06,88.91057645,12.57948761,27.14,99.95,2880,36
FRLM,5/1/06,84.51164316,16.54318776,18.31,99.98,2976,33
FRLM,6/1/06,80.67550355,20.80320077,30.19,99.97,2880,179
FRLM,7/1/06,83.4158568,11.53487117,27.54,99.94,2976,2
FRLM,8/1/06,83.3574464,21.92913771,28.49,99.98,2976,223
FRLM,9/1/06,80.26539926,21.5574369,34.59,99.92,2880,29
FRLM,10/1/06,77.80494623,16.60586185,33.24,99.96,2976,90
FRLM,11/1/06,64.22096183,15.36183704,25.48,99.9,2880,30
FRLM,12/1/06,63.33898187,17.23451702,22.54,97.16,2976,0
FRLM,1/1/07,63.56112898,14.23094525,21.12,99.99,2976,5
FRLM,2/1/07,77.11975064,15.01524009,26.64,99.99,2688,135
FRLM,3/1/07,83.2997947,18.60600738,20.95,99.99,2976,429
FRLM,4/1/07,85.09540964,20.34667622,33.15,99.99,2880,97
FRLM,5/1/07,81.98811136,22.90924562,13.75,99.99,2976,281
FRLM,6/1/07,77.75545818,23.44639493,21.29,99.99,2880,142
FRLM,7/1/07,73.95439847,25.1249462,19.53,99.99,2976,57
FRLM,8/1/07,76.14814508,23.15330011,18.59,99.99,2976,43
FRLM,9/1/07,74.34462157,24.132588,22.89,99.99,2880,38
FRLM,10/1/07,77.95628012,18.36563886,21.97,99.99,2976,132
FRLM,11/1/07,69.69886106,15.16896774,27.66,99.99,2880,39
FRLM,12/1/07,64.04090913,14.84101447,33.77,93.57,242,2733
FRLM,1/1/08,77.43641384,8.778424478,54.57,89.08,145,2831
FRLM,2/1/08,69.82415233,14.1983236,31.33,99.33,2784,0
FRLM,3/1/08,86.16806768,16.37674412,20.8,99.99,2976,274
FRLM,4/1/08,86.55715263,19.62620003,28.5,99.99,2880,224
FRLM,5/1/08,82.44934131,20.70806623,31.64,99.99,2976,78
FRLM,6/1/08,79.90274636,23.24238662,25.11,99.99,2880,223
FRLM,7/1/08,82.91379031,19.28092614,22.07,99.99,2976,14
FRLM,8/1/08,83.85220085,12.27221232,30.6,99.99,2976,1
FRLM,9/1/08,63.48263893,24.76415993,20.71,99.99,2880,36
FRLM,10/1/08,82.61345418,15.26692298,29.72,99.99,2976,162
FRLM,11/1/08,64.79960762,17.37849428,19.97,99.99,2880,36
FRLM,12/1/08,61.99619289,15.45562667,17.4,94.68,2976,0
FRLM,1/1/09,70.58240592,13.40710609,25.98,95.58,2976,0
FRLM,2/1/09,77.18660339,13.28326488,36.95,99.99,2688,82
FRLM,3/1/09,87.60764091,13.43769739,36.68,99.99,2976,254
FRLM,4/1/09,85.10539562,20.0254186,32.89,99.99,2880,386
FRLM,5/1/09,82.1394724,20.37695788,23.91,100,2976,126
FRLM,6/1/09,78.36064926,22.85565261,23.04,99.99,2880,47
FRLM,7/1/09,84.52989909,18.86157066,23.44,99.99,2976,180
FRLM,8/1/09,81.98851477,19.33145203,30.01,100,2976,76
FRLM,9/1/09,71.05026043,25.2332101,14.65,100,2880,1
FRLM,10/1/09,75.14421038,17.35628759,23.36,99.99,2976,7
FRLM,11/1/09,63.86671412,17.65458765,20.06,99.99,2879,9
FRLM,12/1/09,69.25965729,14.07103473,23.64,95.83,2976,0
FRLM,1/1/10,73.77579298,12.54099855,28.5,99.88,2976,0
FRLM,2/1/10,76.81101187,14.73833818,20.6,100,2688,26
FRLM,3/1/10,87.86821233,11.92653157,39.9,100,2976,306
FRLM,4/1/10,87.94451392,18.51119087,28.8,100,2880,354
FRLM,5/1/10,84.64690863,18.51247982,34.5,100,2976,103
FRLM,6/1/10,84.02454862,18.23607886,33.9,100,2880,60
FRLM,7/1/10,77.84667338,20.88878262,28.5,100,2976,31
FRLM,8/1/10,82.48239243,21.02073788,18.4,100,2976,51
FRLM,9/1/10,85.95503473,15.38938259,25.2,100,2880,65
FRLM,10/1/10,76.97123656,20.12081876,21.9,100,2976,327
FRLM,11/1/10,53.46927085,16.26760419,16.9,94.1,2880,0
FRLM,12/1/10,62.64657256,16.90885686,19.3,96.8,2976,0
FRLM,1/1/11,77.68474461,13.62908145,26.7,100,2976,29
FRLM,2/1/11,72.88712795,14.35619315,31,100,2688,31
FRLM,3/1/11,81.87090052,18.05103468,29.6,100,2976,185
FRLM,4/1/11,86.45072918,19.84825849,23.1,100,2880,454
FRLM,5/1/11,82.94334672,20.82607452,26.4,100,2976,102
FRLM,6/1/11,81.89621527,22.43858469,31.3,100,2880,395
FRLM,7/1/11,77.9235887,23.53475705,26.1,100,2976,307
FRLM,8/1/11,85.02331991,19.2881642,19.3,100,2976,419
FRLM,9/1/11,83.51628474,20.37301804,19.4,100,2880,277
FRLM,10/1/11,78.08380375,19.36960002,21.4,100,2976,261
FRLM,11/1/11,60.9389638,16.39269369,19.32,96.6,2847,33
FRLM,12/1/11,64.74375673,16.13829621,22.45,99.48,2976,0
FRLM,1/1/12,67.68850472,14.52263178,23.38,100,2976,15
FRLM,2/1/12,65.16603803,19.82465669,20.4,100,2784,46
FRLM,3/1/12,82.26790319,19.92133637,22.6,100,2976,554
FRLM,4/1/12,83.15098267,23.72593534,28.01,100,2880,796
FRLM,5/1/12,67.72808129,30.85813279,17.34,100,2976,589
FRLM,6/1/12,82.13096188,25.3959951,13.56,100,2880,379
FRLM,7/1/12,93.09470771,9.647568276,33.87,100,2976,548
FRLM,8/1/12,80.89261424,24.03922636,12.98,100,2976,203
FRLM,9/1/12,79.0881319,22.56395117,27.01,100,2880,380
FRLM,10/1/12,71.99287297,20.20553398,25.35,100,2976,181
FRLM,11/1/12,60.55658214,15.46472101,24.1,95.61,2879,0
FRLM,12/1/12,65.54844092,14.39291271,21.21,99.71,2976,0
FRLM,1/1/13,70.55480507,16.97942911,18.46,99.1,2976,0
FRLM,2/1/13,70.93014878,16.39082797,24.46,100,2688,53
FRLM,3/1/13,86.12847449,15.95248558,31.76,100,2976,612
FRLM,4/1/13,88.38849996,15.2983501,27.46,100,2880,424
FRLM,5/1/13,87.48437836,18.67832009,31.65,100,2976,836
FRLM,6/1/13,87.34518401,17.3820879,27.43,100,2880,635
FRLM,7/1/13,88.88976144,17.10505214,29.3,100,2976,273
FRLM,8/1/13,84.10804432,20.59629838,19.67,100,2976,81
FRLM,9/1/13,77.56605898,24.89047942,16.26,100,2880,556
FRLM,10/1/13,84.60354169,18.13810039,31.26,100,2976,826
FRLM,11/1/13,59.2428577,19.63716493,21.69,100,2880,17
FRLM,12/1/13,62.17899531,17.48384464,21.72,100,2976,12
FRLM,1/1/14,62.43341735,17.86640353,20.08,100,2976,1
FRLM,2/1/14,63.35774924,18.67889547,16.66,97.28,2688,0
FRLM,3/1/14,77.89956995,20.24566184,19.36,100,2976,35
FRLM,4/1/14,83.64203122,21.76447015,15.57,100,2880,216
FRLM,5/1/14,84.84563842,22.12787804,22.48,100,2976,594
FRLM,6/1/14,84.37670834,18.81119288,27.15,100,2880,32
FRLM,7/1/14,80.45128363,14.43828497,23.03,100,2976,18
FRLM,8/1/14,76.10064512,25.34690548,25.67,100,2976,168
FRLM,9/1/14,75.31972223,26.22389788,18.3,100,2880,379
FRLM,10/1/14,67.90115596,25.43162805,19.72,100,2976,341
FRLM,11/1/14,65.14231235,15.01326915,23.9,96.18,2876,0
FRLM,12/1/14,64.76767475,13.96037026,25.39,96.3,2976,0
FRLM,1/1/15,65.02044022,16.11041215,20.36,99.77,2976,0
FRLM,2/1/15,65.226663,18.59392733,28.34,100,2688,9
FRLM,3/1/15,82.79499999,15.5266369,27.24,100,2976,113
FRLM,4/1/15,90.47457292,15.09274989,32.56,100,2880,308
FRLM,5/1/15,90.93270833,9.117627084,21.39,100,2976,45
FRLM,6/1/15,76.67035768,22.5538025,20.27,99.93,2880,0
FRLM,7/1/15,80.56768147,20.81477004,16.68,100,2976,67
FRLM,8/1/15,79.63418343,22.33615573,16.9,100,2976,57
FRLM,9/1/15,76.53643399,22.94398442,20.23,100,2880,3
FRLM,10/1/15,72.05665435,20.50714943,16.9,99.78,2974,0
FRLM,11/1/15,58.66316669,17.4652046,19.84,98.77,2880,0
FRLM,12/1/15,63.49335947,18.63438621,13.96,99.89,2929,0
FRLM,1/1/16,64.81606184,17.99763784,17.95,94.94,2976,0
FRLM,2/1/16,64.67696119,17.69476152,21.04,100,2784,4
FRLM,3/1/16,86.86263773,15.33313351,31.41,100,2976,453
FRLM,4/1/16,85.85270481,17.76138931,30.76,100,2880,164
FRLM,5/1/16,84.98093398,20.11267183,23.96,100,2227,30
FRLM,11/1/16,71.75637339,20.49638471,17.91,100,2523,160
FRLM,12/1/16,68.73093754,16.26040058,18.86,100,2976,56
FRLM,1/1/17,65.38620627,15.08465671,18.03,99.65,2976,0
FRLM,2/1/17,63.81719862,16.01008027,20.99,100,2688,4
FRLM,3/1/17,87.36303425,15.75866853,33.44,100,2976,622
FRLM,4/1/17,74.1252083,24.91731209,24.63,100,2880,46
FRLM,5/1/17,80.61605173,23.62693967,16.57,100,2976,269
FRLM,6/1/17,80.1064931,19.00581192,28.42,100,2880,89
FRLM,7/1/17,72.16431452,24.94943833,17.15,100,2976,2
FRLM,8/1/17,75.20406918,23.84946251,14.03,100,2976,220
FRLM,9/1/17,77.51978471,21.21278269,17.63,100,2880,6
FRLM,10/1/17,76.08053423,20.99084841,18.21,100,2976,170
FRLM,11/1/17,67.5080764,18.37810208,17.24,100,2880,9
FRLM,12/1/17,67.27846461,15.74035754,22.19,100,2970,7
FRLM,1/1/18,67.26938168,15.34440293,21.15,99.44,2976,0
FRLM,2/1/18,68.7194271,18.16899784,22.39,100,2688,61
FRLM,3/1/18,83.20954303,19.05504894,27.3,100,2976,368
FRLM,4/1/18,78.33615979,24.62434277,15.75,100,2880,222
FRLM,5/1/18,84.70593746,16.73305119,30.29,100,2976,87
FRLM,6/1/18,73.82184373,25.95032717,26.12,100,2880,253
FRLM,7/1/18,74.55484879,24.09905329,15.26,100,2976,85
FRLM,8/1/18,82.50236562,20.30001178,14.49,100,2976,169
FRLM,9/1/18,76.327941,22.60543162,21.64,100,2880,22
FRLM,10/1/18,66.89133062,23.79325221,23.74,100,2976,26
FRLM,11/1/18,58.57737151,17.58941617,19,100,2880,6
FRLM,12/1/18,58.39098318,18.24501402,17.6,97.6,2970,0
FRLM,1/1/19,70.58351807,12.60341771,26.44,96.74,2976,0
FRLM,2/1/19,69.59528268,18.04236296,25.18,100,2688,49
FRLM,3/1/19,85.22446239,16.22998143,26.43,100,2976,206
FRLM,4/1/19,77.53803126,22.19508289,28.13,100,2880,15
FRLM,5/1/19,78.61162299,23.09648076,32.32,100,2976,130
FRLM,6/1/19,75.04577777,22.25637284,24.59,100,2880,61
FRLM,7/1/19,80.9811727,24.03199611,18.28,100,2976,136
FRLM,8/1/19,74.07889119,23.29282862,18.69,100,2976,61
FRLM,9/1/19,69.57216673,23.31855908,27.52,100,2880,11
FRLM,10/1/19,65.13611229,18.69822107,19.94,98.4,2976,0
FRLM,11/1/19,61.69201044,16.36679075,20.8,94.85,2880,0
FRLM,12/1/19,66.39730484,16.59276887,19.32,100,2972,1192
FRLM,1/1/20,71.66771508,13.58371079,35.66,97.36,2976,2976
FRLM,2/1/20,75.98422773,18.0082532,26.1,100,2784,2784
FRLM,3/1/20,82.52270164,19.67990404,27.1,100,2976,2976
FRLM,4/1/20,77.45499309,23.7662574,25.78,100,2880,2880
FRLM,5/1/20,80.5574597,20.65597622,29.43,100,2976,2976
FRLM,6/1/20,76.32946177,23.50382914,24.06,100,2880,2880
FRLM,7/1/20,80.77699598,22.3870615,22.28,100,2976,2976
FRLM,8/1/20,84.73607864,18.97350641,32.47,100,2976,2976
FRLM,9/1/20,83.7449653,15.36422662,31.14,100,2880,2880
FRLM,10/1/20,65.45945228,21.96511148,24.05,100,2976,2976
FRLM,11/1/20,59.84387848,15.06385237,21.82,98.83,2880,2880
FRLM,12/1/20,57.74184476,14.12081074,18.44,88.66,2976,2976
FRLM,1/1/21,63.24530245,15.40978507,17.67,94.86,2976,2976
FRLM,2/1/21,74.75010046,17.87907016,15.78,100,2688,2688
FRLM,3/1/21,87.85807463,16.89946522,31.84,100,2976,2976
FRLM,4/1/21,84.98719098,15.06394213,33.93,100,2880,2880
FRLM,5/1/21,78.10046371,20.06102187,25.56,100,2976,2976
FRLM,6/1/21,76.0469271,24.38570209,23.43,100,2880,2880
FRLM,7/1/21,83.01083335,20.62211388,26.54,100,2976,2976
FRLM,8/1/21,78.52409611,18.79666169,17.41,100,2976,2976
FRLM,9/1/21,75.867691,24.41682234,22.44,100,2880,2880
FRLM,10/1/21,65.7020027,20.54594867,18.01,100,2976,2976
FRLM,11/1/21,59.77231893,16.54010331,24.54,99.1,2872,2872
FRLM,12/1/21,53.5743581,17.11891388,8.2,95.87,2843,2971
FRLM,1/1/22,67.03168907,12.24918397,21.72,97.31,2013,2976
FRLM,2/1/22,71.71796808,15.8223217,27.56,100,2446,2688
FRLM,3/1/22,75.58720759,23.54821114,16.46,100,2976,2976
FRLM,4/1/22,84.99491663,20.49044395,25.73,100,2880,2880
FRLM,5/1/22,74.39664989,27.45705792,18.59,100,2976,2976
FRLM,6/1/22,81.48478822,21.89134742,27.52,100,2880,2880
FRLM,7/1/22,64.88847446,29.60600912,16.22,100,2976,2976
FRLM,8/1/22,75.2642574,24.51603216,19.98,100,2976,2976
FRLM,9/1/22,78.81328474,23.06885488,26.93,100,2880,2880
FRLM,10/1/22,65.76940191,21.5668797,19.2,100,2976,2976
FRLM,11/1/22,65.71970405,16.36942595,12.79,100,2872,2880
FRLM,12/1/22,71.1113489,10.58408701,21.16,87.22,519,905